sat.trackr.live / text

‹ back to catalog

RASAT

NORAD 37791 · 2011-044D

PAYLOAD ACTIVE UNKNOWN

§ Identity

Operator
Country
TURK
Launch date
2011-08-17
Launch site
DLS
Launch vehicle
Mass (kg)
RCS (m²)
0.58

Purposes: earth_obs

External: N2YO · Heavens-Above · Gunter

§ Orbital elements

Epoch: 2026-09-15T23:10:04.659744Z

Period
98.08 min
Inclination
98.0564°
Eccentricity
0.0019146
Mean motion
14.68235782 rev/d
Perigee alt
653.2 km
Apogee alt
680.2 km
Semi-major
7,044.8 km
B*
1.0312e-5
RAAN
348.9712°
Arg perigee
264.5858°
Mean anomaly
211.7113°
Rev number
80,650

§ Raw data

RASAT1 37791U 11044D   26258.96533171  .00000010  00000+0  10312-4 0  99962 37791  98.0564 348.9712 0019146 264.5858 211.7113 14.68235782806505

JSON: /api/v1/satellites/37791 · /tle

For live sub-satellite position, see the globe view (requires WebGL).

§ Visibility from observer

Set your observer location to see the next 7 days of passes ≥ 10°. The values pass through the URL so the page stays shareable.

No JS? Fill the form by hand. The geolocation button needs JavaScript.